Language selection

My Weather Profile Weather Topics  | 

Atlantic - Labrador: Past 24 Hour Conditions

 

Cartwright Airport

05:00 AM ADT 22 June 2021
Disclaimer

This table is a summary of hourly weather conditions for the past 24 hours.
Please note that these observations might not always be representative of weather conditions over their associated marine area.

Date / Time
(ADT)
Wind(knots) Conditions Visibility(km) Pressure(kPa) Air tempC) Relative humidity(%) Dew pointC)
22 June 2021
5:00 SSW 2 Mist 3 100.6 6 100 6
4:00 calm Mostly Cloudy 16 100.6 7 100 7
3:00 calm Clear 16 100.7 7 99 7
2:00 calm Mostly Cloudy 16 100.7 9 95 8
1:00 N 2 Cloudy 16 100.8 7 97 7
0:00 NNE 4 Cloudy 16 100.8 7 95 6
21 June 2021
23:00 NE 5 Mostly Cloudy 16 100.8 8 93 7
22:00 E 3 Cloudy 16 100.9 8 89 7
21:00 ENE 4 Cloudy 16 100.8 9 88 7
20:00 NE 6 Sunny 16 100.8 10 84 7
19:00 N 6 Mostly Cloudy 16 100.8 9 87 7
18:00 N 8 Mostly Cloudy 16 100.8 10 83 7
17:00 NNE 8 Cloudy 16 100.8 11 83 8
16:00 NE 7 Cloudy 16 100.7 12 81 9
15:00 NE 8 Cloudy 16 100.7 12 83 9
14:00 N 6 Cloudy 16 100.7 11 83 9
13:00 N 5 Cloudy 16 100.7 10 89 8
12:00 NNE 5 Cloudy 16 100.6 10 92 9
11:00 NNE 5 Cloudy 16 100.6 10 93 9
10:00 N 4 Cloudy 16 100.6 9 95 8
9:00 NNE 5 Cloudy 16 100.6 9 93 8
8:00 NNE 8 Cloudy 16 100.6 8 94 7
7:00 NE 4 Cloudy 16 100.5 7 97 7
6:00 NE 6 Cloudy 16 100.5 7 98 7
5:00 NNE 5 Cloudy 16 100.4 7 98 6

Zoom-in to make a selection

Map of Atlantic - Labrador marine weather areas Kangiqsualujjuaq Airport Cape Kakkiviak Cape Kiglapait Cartwright Airport CFB Goose Bay Hopedale Mary's Harbour Nain Airport Makkovik Airport Saglek Tukialik Bay
Legend:
buoy Buoy
land station Land Station

Atlantic - Labrador Area

Another Region

What we are doing

Date modified: